This is the latest recevied weather packets stored in our database for station/object KD7CIH. If no packets are shown the sender has not sent any weather packets the latest 10 day(s).
| Time | Temp. | Humidity | Pressure | Rain* | Wind** | Luminosity | Snow |
|---|---|---|---|---|---|---|---|
| 1777314376 | 5° C | 62% | 1006.9 hPa | 0 mm | - | - | - |
| 1777314073 | 5° C | 64% | 1006.9 hPa | 0 mm | - | - | - |
| 1777313648 | 5° C | 68% | 1006.9 hPa | 0 mm | - | - | - |
| 1777313348 | 5° C | 68% | 1007.1 hPa | 0 mm | - | - | - |
| 1777313047 | 4.44° C | 68% | 1007.1 hPa | 0 mm | - | - | - |
| 1777312748 | 4.44° C | 69% | 1007 hPa | 0 mm | - | - | - |
| 1777312446 | 4.44° C | 69% | 1007.2 hPa | 0 mm | - | - | - |
| 1777312275 | 4.44° C | 69% | 1007.2 hPa | 0 mm | - | - | - |
| 1777311848 | 4.44° C | 70% | 1007.2 hPa | 0 mm | - | - | - |
| 1777311675 | 3.89° C | 70% | 1007.3 hPa | 0 mm | - | - | - |
| 1777311248 | 3.89° C | 71% | 1007.2 hPa | 0 mm | - | - | - |
| 1777310947 | 3.33° C | 73% | 1007.2 hPa | 0 mm | - | - | - |
| 1777310647 | 3.33° C | 73% | 1007.3 hPa | 0 mm | - | - | - |
| 1777310347 | 3.33° C | 73% | 1007.2 hPa | 0 mm | - | - | - |
| 1777310048 | 3.33° C | 74% | 1007.2 hPa | 0 mm | - | - | - |
| 1777309747 | 2.78° C | 74% | 1007.3 hPa | 0 mm | - | - | - |
| 1777309147 | 2.78° C | 73% | 1007.3 hPa | 0 mm | - | - | - |
| 1777308847 | 2.78° C | 75% | 1007.5 hPa | 0 mm | - | - | - |
| 1777308548 | 2.22° C | 75% | 1007.3 hPa | 0 mm | - | - | - |
| 1777308374 | 2.22° C | 75% | 1007.5 hPa | 0 mm | - | - | - |
| 1777307949 | 2.22° C | 75% | 1007.5 hPa | 0 mm | - | - | - |
| 1777307646 | 2.22° C | 76% | 1007.5 hPa | 0 mm | - | - | - |
| 1777307347 | 2.22° C | 77% | 1007.3 hPa | 0 mm | - | - | - |
| 1777307046 | 2.22° C | 74% | 1007.3 hPa | 0 mm | - | - | - |
| 1777306748 | 2.22° C | 75% | 1007.5 hPa | 0 mm | - | - | - |
* Rain latest hour (hover to see other rain measurements)
** Current wind speed in m/s (hover to see current wind gust speed)